User: anonymous   Login
Location: Peebles
(55.6412°N, 3.1714°W)
Time: 23:30:09
(UTC+00:00)
Language:

deb Kosmos-1275 - Orbit

View from above orbital plane
View from above orbital plane
View from above satellite
View from above satellite

Ground track
Ground track

The orbit data is extracted from the following two-line orbital elements,

1 12744U 81053CM  23332.52044672  .00006246  00000-0  28922-2 0  9991
2 12744  82.9312 134.1580 0022049  68.2894 292.0631 14.20547566157265
Epoch (UTC): 28 November 2023 12:29:26
Eccentricity: 0.0022049
inclination: 82.9312°
perigee height: 807 km
apogee height: 839 km
right ascension of ascending node: 134.1580°
argument of perigee: 68.2894°
revolutions per day: 14.20547566
mean anomaly at epoch: 292.0631°
orbit number at epoch: 15726

The dashed part of the orbit path shows where the satellite is in the earth's shadow,  

DLR